Location: Jackson Park
(37.2862°N, 79.9123°W)
Time: 21:17:32
(UTC+00:00)

Transit 4A - Pass Details

Date: 16 May 2026
Orbit: 860 x 980 km, 66.8° (Epoch: 9 June)

Event Time Altitude Azimuth Distance (km) Brightness Sun altitude
Rises 13:59:09 0° 242° (WSW) 3,544 10.6 43.6°
Reaches altitude 10° 14:02:03 10° 254° (WSW) 2,626 10.0 44.2°
Maximum altitude 14:07:07 27° 310° (NW) 1,751 9.3 45.2°
Drops below altitude 10° 14:12:20 10° 6° (N) 2,701 10.4 46.2°
Sets 14:15:23 0° 19° (NNE) 3,665 11.1 46.8°
